Tracking 19146 objects as of 24-Apr-2018
HD Live streaming from Space Station
objects crossing your sky now

FENGYUN 1C DEB

Track FENGYUN 1C DEB now!
10-day predictions


NORAD ID: 30652
Int'l Code: 1999-025APJ
Perigee: 870.2 km
Apogee: 883.2 km
Inclination: 99.1 °
Period: 102.3 minutes
Semi major axis: 7247 km
RCS: 0.0389 m2 (small)
Launch date: May 10, 1999
Source: People's Republic of China (PRC)
Launch site: Taiyaun Space Center, China (TSC)

Note: This is SATELLITE DEBRIS
aabbcc
Your satellite tracking list
Your tracking list is empty




NASA's NSSDC Master Catalog

Two Line Element Set (TLE):
1 30652U 99025APJ 18113.93947904 -.00000018  00000-0  16756-4 0  9999
2 30652  99.1165 133.3372 0008954 150.0725 275.2403 14.07022324574562
Source of the keplerian elements: AFSPC